Location: Nassau
(25.0830°N, 77.3500°W)
Time: 15:48:38
(UTC-04:00)

ISS - All Passes

Search period start: 31 August 2015 00:00
Search period end: 10 September 2015 00:00
Orbit: 400 x 402 km, 51.6° (Epoch: 31 August)

Date Brightness Start Highest point End Pass type
(mag) Time Alt. Az. Time Alt. Az. Time Alt. Az.
31 Aug - 08:19:26 10° SW 08:22:39 70° SE 08:25:53 10° NE daylight
31 Aug - 16:30:30 10° N 16:32:45 17° NE 16:35:02 10° E daylight
31 Aug - 18:06:29 10° WNW 18:09:07 23° SW 18:11:43 10° S daylight
01 Sep - 07:26:45 10° S 07:29:28 26° SE 07:32:15 10° ENE daylight
01 Sep - 09:03:47 10° W 09:05:54 16° NW 09:07:56 10° N daylight
01 Sep - 17:12:45 10° NW 17:15:57 60° SW 17:19:08 10° SSE daylight
02 Sep - 06:35:35 10° SE 06:36:17 11° SE 06:37:10 10° ESE daylight
02 Sep - 08:09:30 10° WSW 08:12:29 34° NW 08:15:29 10° NNE daylight
02 Sep - 16:19:33 10° NNW 16:22:41 48° NE 16:25:49 10° ESE daylight
03 Sep - 07:15:56 10° SW 07:19:10 89° S 07:22:25 10° NE daylight
03 Sep - 15:26:48 10° N 15:29:17 21° NE 15:31:50 10° E daylight
03 Sep - 17:03:15 10° W 17:05:37 18° SW 17:07:54 10° S daylight
04 Sep - 06:23:00 10° SSW 06:25:55 32° SE 06:28:52 10° ENE visible
04 Sep - 08:00:41 10° WNW 08:02:25 13° NW 08:04:03 10° N daylight
04 Sep - 14:35:27 10° NNE 14:35:45 10° NE 14:36:11 10° NE daylight
04 Sep - 16:09:15 10° NW 16:12:23 46° SW 16:15:29 10° SSE daylight
05 Sep - 05:31:07 10° SSE 05:32:41 13° SE 05:34:23 10° E visible
05 Sep - 07:06:04 10° WSW 07:08:55 28° NW 07:11:45 10° NNE daylight
05 Sep - 15:15:52 10° NNW 15:19:04 61° NE 15:22:16 10° SE daylight
06 Sep - 06:12:17 10° SW 06:15:31 71° NW 06:18:45 10° NE visible
06 Sep - 14:22:56 10° NNW 14:25:39 24° NE 14:28:23 10° ESE daylight
06 Sep - 15:59:54 10° W 16:01:55 15° SW 16:03:48 10° SSW daylight
07 Sep - 05:19:08 10° SSW 05:22:11 40° SE 05:25:15 10° ENE visible
07 Sep - 06:57:35 10° WNW 06:58:46 11° NW 06:59:49 10° NNW daylight
07 Sep - 13:30:48 10° NNE 13:32:04 12° NE 13:33:28 10° ENE daylight
07 Sep - 15:05:35 10° WNW 15:08:37 37° SW 15:11:38 10° SSE daylight
08 Sep - 04:26:50 10° SSE 04:28:53 16° SE 04:31:02 10° E visible
08 Sep - 06:02:29 10° W 06:05:10 23° NW 06:07:49 10° NNE visible
08 Sep - 14:12:02 10° NW 14:15:17 77° NE 14:18:30 10° SE daylight
09 Sep - 05:08:29 10° SW 05:11:40 56° NW 05:14:52 10° NNE visible
09 Sep - 13:18:56 10° NNW 13:21:49 29° NE 13:24:43 10° ESE daylight
09 Sep - 14:56:32 10° W 14:58:01 12° SW 14:59:22 10° SSW daylight
